,,Stat6,,Stat2,,Stat8,,Stat9,,Stat10,,Wind1,,Wind1,
time,status,PA1M_AVG,status,PR1M_SUM,status,RH1M_AVG,status,SR1M_AVG,status,TA1M_AVG,status,W1dAve1m,status,W1sAve1m,
2004-02-17, 00:00:00,VALID,918.475,VALID,0,VALID,99.7319,VALID,-0.0849042,VALID,19.5937,VALID,119,VALID,1.20368,
2004-02-17, 00:01:00,VALID,918.464,VALID,0,VALID,99.7141,VALID,-0.0679233,VALID,19.5996,VALID,92,VALID,0.886914,
2004-02-17, 00:02:00,VALID,918.435,VALID,0,VALID,99.6607,VALID,-0.0679233,VALID,19.5999,VALID,106,VALID,0.875558,
2004-02-17, 00:03:00,VALID,918.414,VALID,0,VALID,99.6518,VALID,-0.0849042,VALID,19.5964,VALID,75,VALID,0.630022,
2004-02-17, 00:04:00,VALID,918.406,VALID,0,VALID,99.6646,VALID,-0.101885,VALID,19.6096,VALID,104,VALID,0.664595,
2004-02-17, 00:05:00,VALID,918.39,VALID,0,VALID,99.6989,VALID,-0.101885,VALID,19.6319,VALID,97,VALID,0.616406,
2004-02-17, 00:06:00,VALID,918.375,VALID,0,VALID,99.7192,VALID,-0.101885,VALID,19.6674,VALID,94,VALID,0.608173,
2004-02-17, 00:07:00,VALID,918.346,VALID,0,VALID,99.6582,VALID,-0.0849042,VALID,19.6804,VALID,76,VALID,0.740282,
2004-02-17, 00:08:00,VALID,918.343,VALID,0,VALID,99.5654,VALID,-0.101885,VALID,19.7129,VALID,88,VALID,0.742746,
2004-02-17, 00:09:00,VALID,918.305,VALID,0,VALID,99.3708,VALID,-0.101885,VALID,19.6965,VALID,110,VALID,0.645508,
2004-02-17, 00:10:00,VALID,918.286,VALID,0,VALID,99.2551,VALID,-0.118866,VALID,19.6935,VALID,105,VALID,0.856027,
2004-02-17, 00:11:00,VALID,918.269,VALID,0,VALID,99.1864,VALID,-0.101885,VALID,19.6933,VALID,112,VALID,0.843192,
2004-02-17, 00:12:00,VALID,918.246,VALID,0,VALID,99.1114,VALID,-0.101885,VALID,19.7099,VALID,96,VALID,0.857599,
2004-02-17, 00:13:00,VALID,918.234,VALID,0,VALID,98.9855,VALID,-0.101885,VALID,19.7161,VALID,85,VALID,0.677083,
2004-02-17, 00:14:00,VALID,918.186,VALID,0,VALID,98.9664,VALID,-0.0509425,VALID,19.7385,VALID,70,VALID,1.03437,
2004-02-17, 00:15:00,VALID,918.167,VALID,0,VALID,98.7681,VALID,0,VALID,19.7631,VALID,73,VALID,1.28018,
2004-02-17, 00:16:00,VALID,918.136,VALID,0,VALID,98.5392,VALID,0,VALID,19.7762,VALID,72,VALID,1.44847,
2004-02-17, 00:17:00,VALID,918.116,VALID,0,VALID,98.3065,VALID,0,VALID,19.7924,VALID,76,VALID,1.33784,
2004-02-17, 00:18:00,VALID,918.102,VALID,0,VALID,98.0852,VALID,0.0169808,VALID,19.8051,VALID,64,VALID,1.20465,
2004-02-17, 00:19:00,VALID,918.095,VALID,0,VALID,97.7152,VALID,0,VALID,19.7924,VALID,60,VALID,1.01199,
2004-02-17, 00:20:00,VALID,918.089,VALID,0,VALID,97.7711,VALID,0.0169808,VALID,19.8051,VALID,83,VALID,0.792383,
2004-02-17, 00:21:00,VALID,918.083,VALID,0,VALID,97.8487,VALID,0.0169808,VALID,19.8212,VALID,80,VALID,0.878993,
2004-02-17, 00:22:00,VALID,918.078,VALID,0,VALID,97.7343,VALID,0,VALID,19.8311,VALID,83,VALID,0.757267,
2004-02-17, 00:23:00,VALID,918.071,VALID,0,VALID,97.8233,VALID,0,VALID,19.8341,VALID,91,VALID,1.01426,
2004-02-17, 00:24:00,VALID,918.068,VALID,0,VALID,97.9314,VALID,0,VALID,19.8662,VALID,93,VALID,0.991319,
2004-02-17, 00:25:00,VALID,918.048,VALID,0,VALID,98.0967,VALID,0,VALID,19.9052,VALID,117,VALID,1.31823,
2004-02-17, 00:26:00,VALID,918.036,VALID,0,VALID,97.9593,VALID,0,VALID,19.9407,VALID,122,VALID,1.28995,
2004-02-17, 00:27:00,VALID,918.012,VALID,0,VALID,97.7927,VALID,0,VALID,19.9541,VALID,125,VALID,1.45592,
2004-02-17, 00:28:00,VALID,918.005,VALID,0,VALID,97.4087,VALID,0,VALID,19.9312,VALID,109,VALID,0.680618,
2004-02-17, 00:29:00,VALID,917.976,VALID,0,VALID,97.3858,VALID,0.0169808,VALID,19.9119,VALID,103,VALID,0.421875,
2004-02-17, 00:30:00,VALID,917.971,VALID,0,VALID,97.2752,VALID,0.0169808,VALID,19.8731,VALID,90,VALID,0.68316,
2004-02-17, 00:31:00,VALID,917.978,VALID,0,VALID,97.2841,VALID,0,VALID,19.8314,VALID,73,VALID,0.354581,
2004-02-17, 00:32:00,VALID,917.984,VALID,0,VALID,97.3922,VALID,-0.0169808,VALID,19.8118,VALID,81,VALID,0.332698,
2004-02-17, 00:33:00,VALID,917.988,VALID,0,VALID,97.4507,VALID,0,VALID,19.7929,VALID,81,VALID,0.167696,
2004-02-17, 00:34:00,VALID,917.979,VALID,0,VALID,97.5753,VALID,-0.0169808,VALID,19.7534,VALID,81,VALID,0.122582,
2004-02-17, 00:35:00,VALID,917.954,VALID,0,VALID,97.3884,VALID,0,VALID,19.7082,VALID,81,VALID,0.0015625,
2004-02-17, 00:36:00,VALID,917.931,VALID,0,VALID,97.6007,VALID,-0.0169808,VALID,19.6821,VALID,349,VALID,0.459032,
2004-02-17, 00:37:00,VALID,917.891,VALID,0,VALID,97.911,VALID,-0.0339617,VALID,19.6928,VALID,282,VALID,0.626674,
2004-02-17, 00:38:00,VALID,917.874,VALID,0,VALID,98.1081,VALID,0,VALID,19.6828,VALID,290,VALID,0.682031,
2004-02-17, 00:39:00,VALID,917.857,VALID,0,VALID,98.0267,VALID,-0.0169808,VALID,19.6411,VALID,298,VALID,0.776816,
2004-02-17, 00:40:00,VALID,917.844,VALID,0,VALID,98.0801,VALID,-0.0169808,VALID,19.5892,VALID,282,VALID,0.53869,
2004-02-17, 00:41:00,VALID,917.829,VALID,0,VALID,98.3675,VALID,0,VALID,19.5865,VALID,279,VALID,0.132999,
2004-02-17, 00:42:00,VALID,917.82,VALID,0,VALID,98.4196,VALID,0,VALID,19.5601,VALID,272,VALID,0.00223214,
2004-02-17, 00:43:00,VALID,917.818,VALID,0,VALID,98.2632,VALID,-0.0169808,VALID,19.499,VALID,269,VALID,0.00285823,
2004-02-17, 00:44:00,VALID,917.8,VALID,0,VALID,98.0814,VALID,0,VALID,19.4377,VALID,269,VALID,0,
2004-02-17, 00:45:00,VALID,917.786,VALID,0,VALID,97.9148,VALID,0,VALID,19.3599,VALID,269,VALID,0.0113467,
2004-02-17, 00:46:00,VALID,917.756,VALID,0,VALID,97.6567,VALID,0,VALID,19.2529,VALID,269,VALID,0.183416,
2004-02-17, 00:47:00,VALID,917.739,VALID,0,VALID,98.0331,VALID,0,VALID,19.2181,VALID,269,VALID,0.129616,
2004-02-17, 00:48:00,VALID,917.724,VALID,0,VALID,98.4286,VALID,0,VALID,19.2246,VALID,269,VALID,0.00644531,
2004-02-17, 00:49:00,VALID,917.718,VALID,0,VALID,98.6638,VALID,0.0169808,VALID,19.2306,VALID,269,VALID,0.208807,
2004-02-17, 00:50:00,VALID,917.719,VALID,0,VALID,98.8253,VALID,0,VALID,19.244,VALID,269,VALID,0.195685,
2004-02-17, 00:51:00,VALID,917.701,VALID,0,VALID,98.899,VALID,0.0169808,VALID,19.2569,VALID,269,VALID,0.121838,
2004-02-17, 00:52:00,VALID,917.67,VALID,0,VALID,98.9868,VALID,0,VALID,19.237,VALID,269,VALID,0.00400641,
2004-02-17, 00:53:00,VALID,917.656,VALID,0,VALID,98.9079,VALID,0.0169808,VALID,19.2179,VALID,269,VALID,0.215402,
2004-02-17, 00:54:00,VALID,917.627,VALID,0,VALID,98.4718,VALID,-0.0339617,VALID,19.1344,VALID,266,VALID,0.317835,
2004-02-17, 00:55:00,VALID,917.618,VALID,0,VALID,98.3879,VALID,-0.0339617,VALID,19.0343,VALID,170,VALID,0.495458,
2004-02-17, 00:56:00,VALID,917.611,VALID,0,VALID,98.4184,VALID,-0.0339617,VALID,18.9502,VALID,149,VALID,0.507431,
2004-02-17, 00:57:00,VALID,917.615,VALID,0,VALID,98.5646,VALID,0.0169808,VALID,18.8766,VALID,138,VALID,0.534339,
2004-02-17, 00:58:00,VALID,917.615,VALID,0,VALID,98.7821,VALID,0,VALID,18.8305,VALID,138,VALID,0.509084,
2004-02-17, 00:59:00,VALID,917.615,VALID,0,VALID,99.0313,VALID,0,VALID,18.8277,VALID,138,VALID,0.365282,
2004-02-17, 01:00:00,VALID,917.616,VALID,0,VALID,99.3377,VALID,0.0169808,VALID,18.8431,VALID,131,VALID,0.491815,
2004-02-17, 01:01:00,VALID,917.598,VALID,0,VALID,99.6302,VALID,0,VALID,18.905,VALID,123,VALID,0.432884,
2004-02-17, 01:02:00,VALID,917.591,VALID,0,VALID,99.8477,VALID,-0.0169808,VALID,19.0154,VALID,122,VALID,0.386433,
2004-02-17, 01:03:00,VALID,917.596,VALID,0,VALID,99.9481,VALID,0,VALID,19.1021,VALID,122,VALID,0.526456,
2004-02-17, 01:04:00,VALID,917.607,VALID,0,VALID,99.9659,VALID,0,VALID,19.1575,VALID,122,VALID,0.355015,
2004-02-17, 01:05:00,VALID,917.623,VALID,0,VALID,99.9151,VALID,-0.0169808,VALID,19.1667,VALID,136,VALID,0.698946,
2004-02-17, 01:06:00,VALID,917.617,VALID,0,VALID,99.8451,VALID,0,VALID,19.1503,VALID,139,VALID,0.622514,
2004-02-17, 01:07:00,VALID,917.615,VALID,0,VALID,99.8184,VALID,0,VALID,19.1277,VALID,139,VALID,0.532118,
2004-02-17, 01:08:00,VALID,917.603,VALID,0,VALID,99.7714,VALID,0.0169808,VALID,19.1084,VALID,125,VALID,0.730097,
2004-02-17, 01:09:00,VALID,917.585,VALID,0,VALID,99.6824,VALID,0,VALID,19.0761,VALID,110,VALID,0.611421,
2004-02-17, 01:10:00,VALID,917.581,VALID,0,VALID,99.6264,VALID,0.0169808,VALID,19.0313,VALID,105,VALID,0.411005,
2004-02-17, 01:11:00,VALID,917.582,VALID,0,VALID,99.751,VALID,0,VALID,19.002,VALID,119,VALID,0.515988,
2004-02-17, 01:12:00,VALID,917.589,VALID,0,VALID,99.8235,VALID,0.0169808,VALID,18.9983,VALID,120,VALID,0.334872,
2004-02-17, 01:13:00,VALID,917.573,VALID,0,VALID,99.8273,VALID,0,VALID,19.0083,VALID,120,VALID,0.264583,
2004-02-17, 01:14:00,VALID,917.567,VALID,0,VALID,99.8438,VALID,-0.0339617,VALID,19.0191,VALID,120,VALID,0.200648,
2004-02-17, 01:15:00,VALID,917.541,VALID,0,VALID,99.8629,VALID,-0.101885,VALID,19.0134,VALID,120,VALID,0.563565,
2004-02-17, 01:16:00,VALID,917.51,VALID,0,VALID,99.8655,VALID,-0.0679233,VALID,19.0097,VALID,123,VALID,0.838844,
2004-02-17, 01:17:00,VALID,917.501,VALID,0,VALID,99.8744,VALID,-0.101885,VALID,18.9901,VALID,129,VALID,0.951451,
2004-02-17, 01:18:00,VALID,917.498,VALID,0,VALID,99.8896,VALID,-0.101885,VALID,18.9809,VALID,135,VALID,1.14267,
2004-02-17, 01:19:00,VALID,917.496,VALID,0,VALID,99.9842,VALID,-0.101885,VALID,19.0132,VALID,141,VALID,1.25712,
2004-02-17, 01:20:00,VALID,917.489,VALID,0,VALID,100,VALID,-0.101885,VALID,19.0651,VALID,139,VALID,1.1321,
2004-02-17, 01:21:00,VALID,917.49,VALID,0,VALID,100,VALID,-0.0849042,VALID,19.0969,VALID,138,VALID,1.20313,
2004-02-17, 01:22:00,VALID,917.465,VALID,0,VALID,100,VALID,-0.0849042,VALID,19.1329,VALID,137,VALID,0.961301,
2004-02-17, 01:23:00,VALID,917.439,VALID,0,VALID,100,VALID,-0.101885,VALID,19.1523,VALID,128,VALID,1.03274,
2004-02-17, 01:24:00,VALID,917.434,VALID,0,VALID,100,VALID,-0.101885,VALID,19.0974,VALID,116,VALID,1.02042,
2004-02-17, 01:25:00,VALID,917.409,VALID,0,VALID,100,VALID,-0.101885,VALID,19.0648,VALID,131,VALID,1.00191,
2004-02-17, 01:26:00,VALID,917.412,VALID,0,VALID,100,VALID,-0.0849042,VALID,19.0877,VALID,136,VALID,0.933699,
2004-02-17, 01:27:00,VALID,917.409,VALID,0,VALID,100,VALID,-0.0849042,VALID,19.1264,VALID,131,VALID,1.14702,
2004-02-17, 01:28:00,VALID,917.404,VALID,0,VALID,100,VALID,-0.0849042,VALID,19.1262,VALID,132,VALID,1.254,
2004-02-17, 01:29:00,VALID,917.398,VALID,0,VALID,100,VALID,-0.0509425,VALID,19.1354,VALID,142,VALID,1.08038,
2004-02-17, 01:30:00,VALID,917.382,VALID,0,VALID,100,VALID,0,VALID,19.1702,VALID,135,VALID,1.11198,
2004-02-17, 01:31:00,VALID,917.362,VALID,0,VALID,100,VALID,-0.0169808,VALID,19.1896,VALID,131,VALID,1.03385,
2004-02-17, 01:32:00,VALID,917.314,VALID,0,VALID,100,VALID,0,VALID,19.1833,VALID,113,VALID,1.07402,
2004-02-17, 01:33:00,VALID,917.295,VALID,0,VALID,100,VALID,0,VALID,19.1446,VALID,109,VALID,1.07889,
2004-02-17, 01:34:00,VALID,917.301,VALID,0,VALID,100,VALID,-0.0339617,VALID,19.1255,VALID,106,VALID,1.16387,
2004-02-17, 01:35:00,VALID,917.304,VALID,0,VALID,100,VALID,0,VALID,19.0924,VALID,101,VALID,0.960211,
2004-02-17, 01:36:00,VALID,917.302,VALID,0,VALID,100,VALID,0,VALID,19.0897,VALID,99,VALID,0.662364,
2004-02-17, 01:37:00,VALID,917.3,VALID,0,VALID,100,VALID,0,VALID,19.0475,VALID,92,VALID,0.672408,
2004-02-17, 01:38:00,VALID,917.289,VALID,0,VALID,100,VALID,0.0169808,VALID,19.0182,VALID,95,VALID,0.708203,
2004-02-17, 01:39:00,VALID,917.303,VALID,0,VALID,100,VALID,0.0169808,VALID,19.0016,VALID,103,VALID,0.904797,
2004-02-17, 01:40:00,VALID,917.32,VALID,0,VALID,100,VALID,0,VALID,18.9891,VALID,118,VALID,0.9504,
2004-02-17, 01:41:00,VALID,917.316,VALID,0,VALID,100,VALID,0,VALID,18.9891,VALID,136,VALID,1.08308,
2004-02-17, 01:42:00,VALID,917.326,VALID,0,VALID,100,VALID,0,VALID,18.9958,VALID,141,VALID,1.03965,
2004-02-17, 01:43:00,VALID,917.317,VALID,0,VALID,100,VALID,0,VALID,19.0087,VALID,135,VALID,1.2191,
2004-02-17, 01:44:00,VALID,917.289,VALID,0,VALID,100,VALID,-0.0339617,VALID,19.0191,VALID,131,VALID,1.18659,
2004-02-17, 01:45:00,VALID,917.268,VALID,0,VALID,100,VALID,-0.0849042,VALID,19.0355,VALID,132,VALID,1.1593,
2004-02-17, 01:46:00,VALID,917.256,VALID,0,VALID,100,VALID,-0.0849042,VALID,19.0489,VALID,121,VALID,1.19062,
2004-02-17, 01:47:00,VALID,917.252,VALID,0,VALID,100,VALID,-0.0679233,VALID,19.0422,VALID,121,VALID,1.29271,
2004-02-17, 01:48:00,VALID,917.228,VALID,0,VALID,100,VALID,-0.0849042,VALID,19.0417,VALID,113,VALID,0.7996,
2004-02-17, 01:49:00,VALID,917.201,VALID,0,VALID,100,VALID,-0.0849042,VALID,19.0551,VALID,127,VALID,1.09412,
2004-02-17, 01:50:00,VALID,917.178,VALID,0,VALID,100,VALID,-0.101885,VALID,19.0554,VALID,127,VALID,1.16813,
2004-02-17, 01:51:00,VALID,917.149,VALID,0,VALID,100,VALID,-0.0679233,VALID,19.0549,VALID,131,VALID,1.04121,
2004-02-17, 01:52:00,VALID,917.13,VALID,0,VALID,100,VALID,-0.101885,VALID,19.0743,VALID,132,VALID,1.26036,
2004-02-17, 01:53:00,VALID,917.132,VALID,0,VALID,100,VALID,-0.0849042,VALID,19.116,VALID,131,VALID,1.38172,
2004-02-17, 01:54:00,VALID,917.147,VALID,0,VALID,100,VALID,-0.101885,VALID,19.1518,VALID,131,VALID,0.90968,
2004-02-17, 01:55:00,VALID,917.142,VALID,0,VALID,100,VALID,-0.0509425,VALID,19.1778,VALID,139,VALID,1.25382,
2004-02-17, 01:56:00,VALID,917.118,VALID,0,VALID,100,VALID,-0.0509425,VALID,19.2002,VALID,128,VALID,1.64139,
2004-02-17, 01:57:00,VALID,917.092,VALID,0,VALID,100,VALID,-0.0679233,VALID,19.2166,VALID,127,VALID,1.52969,
2004-02-17, 01:58:00,VALID,917.045,VALID,0,VALID,100,VALID,-0.0849042,VALID,19.2096,VALID,122,VALID,1.63681,
2004-02-17, 01:59:00,VALID,917.03,VALID,0,VALID,100,VALID,-0.0679233,VALID,19.2226,VALID,122,VALID,1.60312,
2004-02-17, 02:00:00,VALID,917.017,VALID,0,VALID,100,VALID,-0.0169808,VALID,19.2027,VALID,93,VALID,1.08629,
2004-02-17, 02:01:00,VALID,917.025,VALID,0,VALID,100,VALID,-0.0679233,VALID,19.2,VALID,133,VALID,1.41442,
2004-02-17, 02:02:00,VALID,917.021,VALID,0,VALID,100,VALID,-0.0679233,VALID,19.2067,VALID,122,VALID,1.30264,
2004-02-17, 02:03:00,VALID,917.014,VALID,0,VALID,100,VALID,-0.0339617,VALID,19.2034,VALID,131,VALID,1.31622,
2004-02-17, 02:04:00,VALID,917.008,VALID,0,VALID,100,VALID,-0.0679233,VALID,19.2067,VALID,127,VALID,1.28906,
2004-02-17, 02:05:00,VALID,916.971,VALID,0,VALID,100,VALID,-0.0849042,VALID,19.2099,VALID,131,VALID,1.59446,
2004-02-17, 02:06:00,VALID,916.953,VALID,0,VALID,100,VALID,-0.0849042,VALID,19.2096,VALID,127,VALID,1.54202,
2004-02-17, 02:07:00,VALID,916.932,VALID,0,VALID,100,VALID,-0.0679233,VALID,19.1935,VALID,127,VALID,1.36028,
2004-02-17, 02:08:00,VALID,916.91,VALID,0,VALID,100,VALID,-0.101885,VALID,19.1677,VALID,131,VALID,1.49727,
2004-02-17, 02:09:00,VALID,916.903,VALID,0,VALID,100,VALID,-0.0679233,VALID,19.1903,VALID,137,VALID,1.84976,
2004-02-17, 02:10:00,VALID,916.892,VALID,0,VALID,100,VALID,-0.0679233,VALID,19.2131,VALID,141,VALID,1.47675,
2004-02-17, 02:11:00,VALID,916.866,VALID,0,VALID,100,VALID,-0.0849042,VALID,19.2136,VALID,140,VALID,1.67397,
2004-02-17, 02:12:00,VALID,916.839,VALID,0,VALID,100,VALID,-0.101885,VALID,19.2134,VALID,134,VALID,1.10137,
2004-02-17, 02:13:00,VALID,916.801,VALID,0,VALID,100,VALID,-0.101885,VALID,19.2136,VALID,119,VALID,1.32012,
2004-02-17, 02:14:00,VALID,916.775,VALID,0,VALID,100,VALID,-0.0339617,VALID,19.1704,VALID,112,VALID,1.35605,
2004-02-17, 02:15:00,VALID,916.772,VALID,0,VALID,100,VALID,0.0169808,VALID,19.1473,VALID,121,VALID,1.11597,
2004-02-17, 02:16:00,VALID,916.77,VALID,0,VALID,100,VALID,0,VALID,19.131,VALID,126,VALID,0.80878,
2004-02-17, 02:17:00,VALID,916.757,VALID,0.2,VALID,100,VALID,0.0169808,VALID,19.1017,VALID,123,VALID,0.871911,
2004-02-17, 02:18:00,VALID,916.756,VALID,0,VALID,100,VALID,0.0169808,VALID,19.0952,VALID,107,VALID,0.764535,
2004-02-17, 02:19:00,VALID,916.761,VALID,0,VALID,100,VALID,0.0339617,VALID,19.0788,VALID,108,VALID,0.821144,
2004-02-17, 02:20:00,VALID,916.746,VALID,0,VALID,100,VALID,0.0339617,VALID,19.1113,VALID,129,VALID,1.14807,
2004-02-17, 02:21:00,VALID,916.735,VALID,0,VALID,100,VALID,0.0339617,VALID,19.1051,VALID,107,VALID,0.805078,
2004-02-17, 02:22:00,VALID,916.705,VALID,0,VALID,100,VALID,0,VALID,19.0825,VALID,97,VALID,0.744978,
2004-02-17, 02:23:00,VALID,916.697,VALID,0,VALID,100,VALID,0,VALID,19.0763,VALID,89,VALID,0.626302,
2004-02-17, 02:24:00,VALID,916.68,VALID,0,VALID,100,VALID,0.0339617,VALID,19.0629,VALID,87,VALID,0.408507,
2004-02-17, 02:25:00,VALID,916.674,VALID,0,VALID,100,VALID,0.0169808,VALID,19.0532,VALID,110,VALID,0.725836,
2004-02-17, 02:26:00,VALID,916.662,VALID,0,VALID,100,VALID,0,VALID,19.0539,VALID,94,VALID,0.796875,
2004-02-17, 02:27:00,VALID,916.651,VALID,0,VALID,100,VALID,0,VALID,19.0212,VALID,31,VALID,0.529688,
2004-02-17, 02:28:00,VALID,916.626,VALID,0,VALID,100,VALID,0,VALID,19.015,VALID,101,VALID,1.3472,
2004-02-17, 02:29:00,VALID,916.644,VALID,0,VALID,100,VALID,0,VALID,19.0502,VALID,113,VALID,1.36514,
2004-02-17, 02:30:00,VALID,916.628,VALID,0,VALID,100,VALID,0,VALID,19.0793,VALID,101,VALID,0.977653,
2004-02-17, 02:31:00,VALID,916.609,VALID,0,VALID,100,VALID,0.0339617,VALID,19.0887,VALID,95,VALID,1.02039,
2004-02-17, 02:32:00,VALID,916.559,VALID,0,VALID,100,VALID,0.0169808,VALID,19.1086,VALID,93,VALID,1.1783,
2004-02-17, 02:33:00,VALID,916.536,VALID,0,VALID,100,VALID,0.0169808,VALID,19.1215,VALID,109,VALID,0.824886,
2004-02-17, 02:34:00,VALID,916.513,VALID,0,VALID,100,VALID,0,VALID,19.1471,VALID,115,VALID,1.16858,
2004-02-17, 02:35:00,VALID,916.519,VALID,0,VALID,100,VALID,0.0169808,VALID,19.1471,VALID,124,VALID,1.11905,
2004-02-17, 02:36:00,VALID,916.53,VALID,0,VALID,100,VALID,0.0169808,VALID,19.1568,VALID,118,VALID,1.06339,
2004-02-17, 02:37:00,VALID,916.523,VALID,0,VALID,100,VALID,0.0169808,VALID,19.196,VALID,126,VALID,1.71695,
2004-02-17, 02:38:00,VALID,916.516,VALID,0,VALID,100,VALID,0.0169808,VALID,19.2117,VALID,133,VALID,1.29668,
2004-02-17, 02:39:00,VALID,916.499,VALID,0,VALID,100,VALID,0.0339617,VALID,19.2087,VALID,117,VALID,1.38377,
2004-02-17, 02:40:00,VALID,916.477,VALID,0,VALID,100,VALID,0.0169808,VALID,19.2117,VALID,110,VALID,0.996003,
2004-02-17, 02:41:00,VALID,916.485,VALID,0,VALID,100,VALID,0.0339617,VALID,19.205,VALID,127,VALID,1.54874,
2004-02-17, 02:42:00,VALID,916.484,VALID,0,VALID,99.9809,VALID,0.0339617,VALID,19.2251,VALID,118,VALID,1.5918,
2004-02-17, 02:43:00,VALID,916.493,VALID,0,VALID,99.9074,VALID,0.0339617,VALID,19.2186,VALID,129,VALID,1.38536,
2004-02-17, 02:44:00,VALID,916.484,VALID,0,VALID,99.8578,VALID,-0.0339617,VALID,19.229,VALID,133,VALID,1.39864,
2004-02-17, 02:45:00,VALID,916.477,VALID,0,VALID,99.7548,VALID,-0.0509425,VALID,19.2087,VALID,116,VALID,1.13338,
2004-02-17, 02:46:00,VALID,916.449,VALID,0,VALID,99.7129,VALID,-0.0169808,VALID,19.2057,VALID,130,VALID,1.56994,
2004-02-17, 02:47:00,VALID,916.439,VALID,0,VALID,99.6493,VALID,-0.0169808,VALID,19.1963,VALID,122,VALID,1.5783,
2004-02-17, 02:48:00,VALID,916.427,VALID,0,VALID,99.6061,VALID,-0.0339617,VALID,19.1893,VALID,123,VALID,1.46183,
2004-02-17, 02:49:00,VALID,916.42,VALID,0,VALID,99.5399,VALID,0,VALID,19.1764,VALID,112,VALID,1.40785,
2004-02-17, 02:50:00,VALID,916.411,VALID,0,VALID,99.512,VALID,0,VALID,19.1702,VALID,113,VALID,1.49162,
2004-02-17, 02:51:00,VALID,916.407,VALID,0,VALID,99.5565,VALID,0,VALID,19.1565,VALID,119,VALID,1.80264,
2004-02-17, 02:52:00,VALID,916.404,VALID,0,VALID,99.4649,VALID,0,VALID,19.1764,VALID,87,VALID,0.816497,
2004-02-17, 02:53:00,VALID,916.406,VALID,0,VALID,99.4547,VALID,-0.0339617,VALID,19.1565,VALID,117,VALID,0.96875,
2004-02-17, 02:54:00,VALID,916.374,VALID,0,VALID,99.3937,VALID,0,VALID,19.157,VALID,89,VALID,0.832508,
2004-02-17, 02:55:00,VALID,916.351,VALID,0,VALID,99.3581,VALID,0,VALID,19.1506,VALID,119,VALID,0.974023,
2004-02-17, 02:56:00,VALID,916.34,VALID,0,VALID,99.3466,VALID,0,VALID,19.1441,VALID,103,VALID,0.973772,
2004-02-17, 02:57:00,VALID,916.31,VALID,0,VALID,99.2843,VALID,0,VALID,19.1245,VALID,108,VALID,0.726918,
2004-02-17, 02:58:00,VALID,916.301,VALID,0,VALID,99.2894,VALID,0,VALID,19.1051,VALID,115,VALID,1.18211,
2004-02-17, 02:59:00,VALID,916.298,VALID,0,VALID,99.4166,VALID,0,VALID,19.1282,VALID,136,VALID,1.66902,
2004-02-17, 03:00:00,VALID,916.286,VALID,0,VALID,99.4395,VALID,-0.0169808,VALID,19.1349,VALID,126,VALID,1.62062,
2004-02-17, 03:01:00,VALID,916.276,VALID,0,VALID,99.498,VALID,0,VALID,19.1473,VALID,143,VALID,1.42987,
2004-02-17, 03:02:00,VALID,916.268,VALID,0,VALID,99.4217,VALID,0,VALID,19.1374,VALID,130,VALID,1.08457,
2004-02-17, 03:03:00,VALID,916.258,VALID,0,VALID,99.2894,VALID,-0.0169808,VALID,19.115,VALID,104,VALID,1.02632,
2004-02-17, 03:04:00,VALID,916.245,VALID,0,VALID,99.3009,VALID,0,VALID,19.1024,VALID,109,VALID,1.35211,
2004-02-17, 03:05:00,VALID,916.248,VALID,0,VALID,99.2462,VALID,-0.0339617,VALID,19.0832,VALID,107,VALID,0.985618,
2004-02-17, 03:06:00,VALID,916.248,VALID,0,VALID,99.292,VALID,0.0169808,VALID,19.0736,VALID,117,VALID,1.22693,
2004-02-17, 03:07:00,VALID,916.259,VALID,0,VALID,99.3199,VALID,0,VALID,19.0599,VALID,120,VALID,1.47275,
2004-02-17, 03:08:00,VALID,916.257,VALID,0,VALID,99.4128,VALID,-0.0169808,VALID,19.0636,VALID,128,VALID,1.29961,
2004-02-17, 03:09:00,VALID,916.238,VALID,0,VALID,99.4433,VALID,-0.0169808,VALID,19.0731,VALID,150,VALID,0.989462,
2004-02-17, 03:10:00,VALID,916.205,VALID,0,VALID,99.4357,VALID,-0.0339617,VALID,19.0733,VALID,115,VALID,1.26944,
2004-02-17, 03:11:00,VALID,916.187,VALID,0,VALID,99.4496,VALID,0,VALID,19.0828,VALID,121,VALID,1.37445,
2004-02-17, 03:12:00,VALID,916.191,VALID,0,VALID,99.4509,VALID,0,VALID,19.0994,VALID,98,VALID,1.31934,
2004-02-17, 03:13:00,VALID,916.201,VALID,0,VALID,99.4191,VALID,-0.0169808,VALID,19.0895,VALID,128,VALID,0.833079,
2004-02-17, 03:14:00,VALID,916.202,VALID,0,VALID,99.512,VALID,0,VALID,19.0858,VALID,125,VALID,1.244,
2004-02-17, 03:15:00,VALID,916.199,VALID,0,VALID,99.5463,VALID,0,VALID,19.0987,VALID,132,VALID,1.03811,
2004-02-17, 03:16:00,VALID,916.185,VALID,0,VALID,99.5412,VALID,-0.0339617,VALID,19.1024,VALID,144,VALID,0.942308,
2004-02-17, 03:17:00,VALID,916.168,VALID,0,VALID,99.6175,VALID,-0.0169808,VALID,19.115,VALID,137,VALID,1.64044,
2004-02-17, 03:18:00,VALID,916.169,VALID,0,VALID,99.6417,VALID,0,VALID,19.122,VALID,144,VALID,1.0168,
2004-02-17, 03:19:00,VALID,916.146,VALID,0,VALID,99.6569,VALID,0,VALID,19.1314,VALID,144,VALID,0.79195,
2004-02-17, 03:20:00,VALID,916.139,VALID,0,VALID,99.634,VALID,0,VALID,19.1116,VALID,154,VALID,0.566406,
2004-02-17, 03:21:00,VALID,916.102,VALID,0,VALID,99.6073,VALID,0,VALID,19.1222,VALID,121,VALID,1.12481,
2004-02-17, 03:22:00,VALID,916.071,VALID,0,VALID,99.6188,VALID,0,VALID,19.1026,VALID,131,VALID,1.36998,
2004-02-17, 03:23:00,VALID,916.049,VALID,0,VALID,99.6696,VALID,-0.0169808,VALID,19.0924,VALID,132,VALID,1.16815,
2004-02-17, 03:24:00,VALID,916.044,VALID,0,VALID,99.6925,VALID,-0.0509425,VALID,19.1088,VALID,118,VALID,1.52559,
2004-02-17, 03:25:00,VALID,916.05,VALID,0,VALID,99.7027,VALID,0.0169808,VALID,19.1021,VALID,108,VALID,1.45876,
2004-02-17, 03:26:00,VALID,916.031,VALID,0,VALID,99.765,VALID,-0.0169808,VALID,19.1123,VALID,145,VALID,1.27965,
2004-02-17, 03:27:00,VALID,916.014,VALID,0,VALID,99.7866,VALID,0.0169808,VALID,19.125,VALID,139,VALID,1.09356,
2004-02-17, 03:28:00,VALID,916.024,VALID,0,VALID,99.7752,VALID,-0.0169808,VALID,19.1247,VALID,133,VALID,0.90346,
2004-02-17, 03:29:00,VALID,916.014,VALID,0,VALID,99.737,VALID,-0.0169808,VALID,19.1252,VALID,130,VALID,0.523801,
2004-02-17, 03:30:00,VALID,916.005,VALID,0,VALID,99.69,VALID,-0.0339617,VALID,19.1121,VALID,128,VALID,0.306141,
2004-02-17, 03:31:00,VALID,915.984,VALID,0,VALID,99.6887,VALID,-0.0169808,VALID,19.0858,VALID,119,VALID,0.582617,
2004-02-17, 03:32:00,VALID,915.969,VALID,0,VALID,99.7243,VALID,-0.0339617,VALID,19.0899,VALID,137,VALID,0.992365,
2004-02-17, 03:33:00,VALID,915.958,VALID,0,VALID,99.7561,VALID,0,VALID,19.0932,VALID,130,VALID,0.833519,
2004-02-17, 03:34:00,VALID,915.929,VALID,0,VALID,99.7269,VALID,-0.0169808,VALID,19.0897,VALID,90,VALID,0.451823,
2004-02-17, 03:35:00,VALID,915.904,VALID,0,VALID,99.7587,VALID,-0.0169808,VALID,19.0736,VALID,140,VALID,1.00335,
2004-02-17, 03:36:00,VALID,915.88,VALID,0,VALID,99.7955,VALID,-0.0339617,VALID,19.0862,VALID,121,VALID,0.721554,
2004-02-17, 03:37:00,VALID,915.856,VALID,0,VALID,99.7739,VALID,-0.0169808,VALID,19.0701,VALID,125,VALID,0.399219,
2004-02-17, 03:38:00,VALID,915.832,VALID,0,VALID,99.7459,VALID,-0.0509425,VALID,19.0505,VALID,119,VALID,0.700817,
2004-02-17, 03:39:00,VALID,915.829,VALID,0,VALID,99.7358,VALID,0,VALID,19.0343,VALID,124,VALID,0.542597,